Weather History for Morganton, NC

Change the Weather History Date:

Monday, January 28, 2013

  Actual Average (KHKY) Record (KHKY)
Temperature  
Mean Temperature 44 °F -  
Max Temperature 58 °F 50 °F 75 °F (1999)
Min Temperature 30 °F 27 °F 6 °F (1986)
Degree Days  
Heating Degree Days 21    
Moisture  
Dew Point 37 °F    
Average Humidity 83    
Maximum Humidity 99    
Minimum Humidity 58    
Precipitation  
Precipitation 0.00 in - - ()
Sea Level Pressure  
Sea Level Pressure 30.37 in    
Wind  
Wind Speed 1 mph (SW)    
Max Wind Speed 9 mph    
Max Gust Speed -    
Visibility 7 miles    
Events Rain    
Averages and records for this station are not official NWS values.
T = Trace of Precipitation, MM = Missing Value Source: NWS Daily Summary

Daily Weather History Graph

Daily Weather History Graph

Search for Another Location

Airport:

Trip Planner

Search our weather history database for the weather conditions in past years. The results will help you decide how hot, cold, wet, or windy it might be!

Date:

Astronomy

Jan. 28, 2013 Rise Set
Actual Time 7:29 AM EST 5:49 PM EST
Civil Twilight 7:02 AM EST 6:16 PM EST
Nautical Twilight 6:31 AM EST 6:47 PM EST
Astronomical Twilight 6:01 AM EST 7:17 PM EST
Moon 7:37 PM EST (1/28) 7:59 AM EST (1/28)
Length of Visible Light 11h 14m
Length of Day
10h 20m
Full, 98% of the Moon is Illuminated
Jan 28
Full
Feb 3
Last Quarter
Feb 10
New
Feb 17
First Quarter
Feb 25
Full

Hourly Weather History & Observations

Time (EST) Temp. Windchill Dew Point Humidity Pressure Visibility Wind Dir Wind Speed Gust Speed Precip Events Conditions
12:15 AM 34.7 °F - 33.3 °F 94% 30.47 in 5.0 mi Calm Calm - N/A   Light Drizzle
12:35 AM 34.7 °F - 33.6 °F 96% 30.47 in 5.0 mi Calm Calm - N/A   Scattered Clouds
12:55 AM 34.7 °F - 33.3 °F 94% 30.48 in 5.0 mi Calm Calm - N/A   Mostly Cloudy
1:15 AM 34.7 °F - 32.0 °F 90% 30.47 in 7.0 mi Calm Calm - N/A   Mostly Cloudy
1:35 AM 34.7 °F - 33.1 °F 94% 30.47 in 7.0 mi Calm Calm - N/A Rain Light Rain
1:55 AM 34.9 °F - 33.3 °F 94% 30.47 in 5.0 mi Calm Calm - N/A   Overcast
2:15 AM 34.7 °F - 33.6 °F 96% 30.46 in 5.0 mi Calm Calm - N/A Rain Light Rain
2:35 AM 34.7 °F - 33.3 °F 94% 30.45 in 5.0 mi Calm Calm - N/A   Overcast
2:55 AM 34.3 °F - 32.9 °F 94% 30.46 in 5.0 mi Calm Calm - N/A   Mostly Cloudy
3:15 AM 34.3 °F - 33.1 °F 95% 30.46 in 4.0 mi Calm Calm - N/A   Scattered Clouds
3:35 AM 33.8 °F - 33.1 °F 97% 30.46 in 3.0 mi Calm Calm - N/A   Mostly Cloudy
3:55 AM 34.3 °F - 33.1 °F 95% 30.45 in 4.0 mi Calm Calm - N/A   Mostly Cloudy
4:15 AM 34.2 °F - 33.4 °F 97% 30.45 in 4.0 mi Calm Calm - N/A   Scattered Clouds
4:35 AM 34.2 °F - 33.4 °F 97% 30.45 in 3.0 mi Calm Calm - N/A   Scattered Clouds
4:55 AM 34.3 °F - 33.4 °F 97% 30.45 in 5.0 mi Calm Calm - N/A   Clear
5:15 AM 34.3 °F - 33.4 °F 97% 30.44 in 3.0 mi Calm Calm - N/A   Scattered Clouds
5:35 AM 34.2 °F - 32.9 °F 95% 30.45 in 5.0 mi Calm Calm - N/A   Scattered Clouds
5:55 AM 33.8 °F - 32.5 °F 95% 30.45 in 3.0 mi Calm Calm - N/A   Scattered Clouds
6:15 AM 33.3 °F - 32.5 °F 97% 30.46 in 2.5 mi Calm Calm - N/A   Overcast
6:35 AM 33.8 °F - 33.3 °F 98% 30.45 in 4.0 mi Calm Calm - N/A   Overcast
6:55 AM 34.0 °F - 33.3 °F 97% 30.45 in 7.0 mi Calm Calm - N/A   Overcast
7:15 AM 32.9 °F - 32.2 °F 97% 30.46 in 3.0 mi Calm Calm - N/A   Mostly Cloudy
7:35 AM 31.8 °F - 31.1 °F 97% 30.46 in 1.2 mi Calm Calm - N/A   Mist
7:55 AM 30.9 °F 26.2 °F 30.7 °F 99% 30.45 in 2.0 mi SSE 4.6 mph - N/A   Clear
8:15 AM 33.6 °F - 33.3 °F 99% 30.45 in 4.0 mi Calm Calm - N/A   Clear
8:35 AM 35.1 °F 32.2 °F 32.4 °F 90% 30.46 in 5.0 mi NW 3.5 mph - N/A   Clear
8:55 AM 36.0 °F - 32.0 °F 86% 30.46 in 7.0 mi Calm Calm - N/A   Clear
9:15 AM 37.0 °F - 31.8 °F 81% 30.45 in 7.0 mi Calm Calm - N/A   Clear
9:35 AM 38.3 °F - 32.5 °F 80% 30.44 in 7.0 mi Calm Calm - N/A   Clear
9:55 AM 38.7 °F - 32.0 °F 77% 30.44 in 10.0 mi Calm Calm - N/A   Clear
10:15 AM 39.4 °F - 32.0 °F 75% 30.44 in 10.0 mi Calm Calm - N/A   Scattered Clouds
10:35 AM 40.8 °F 38.8 °F 32.2 °F 71% 30.44 in 10.0 mi SSW 3.5 mph - N/A   Mostly Cloudy
10:55 AM 41.2 °F - 32.0 °F 70% 30.44 in 10.0 mi Calm Calm - N/A   Overcast
11:15 AM 42.1 °F - 32.5 °F 69% 30.43 in 10.0 mi Calm Calm - N/A   Overcast
11:35 AM 42.8 °F - 32.4 °F 67% 30.42 in 10.0 mi Calm Calm - N/A   Overcast
12:15 PM 44.6 °F - 32.9 °F 64% 30.40 in 10.0 mi Calm Calm - N/A   Overcast
12:35 PM 45.3 °F - 33.4 °F 63% 30.37 in 10.0 mi Calm Calm - N/A   Overcast
12:55 PM 46.4 °F - 34.0 °F 62% 30.36 in 10.0 mi Calm Calm - N/A   Overcast
1:15 PM 47.5 °F - 35.1 °F 62% 30.34 in 10.0 mi Calm Calm - N/A   Overcast
1:35 PM 49.3 °F - 36.5 °F 61% 30.33 in 10.0 mi Calm Calm - N/A   Overcast
1:55 PM 51.8 °F - 38.8 °F 61% 30.30 in 10.0 mi SSW 4.6 mph - N/A   Scattered Clouds
2:15 PM 54.3 °F - 41.7 °F 62% 30.29 in 10.0 mi SW 3.5 mph - N/A   Clear
2:35 PM 56.1 °F - 42.8 °F 61% 30.29 in 10.0 mi West 4.6 mph - N/A   Clear
2:55 PM 56.3 °F - 43.5 °F 62% 30.28 in 10.0 mi WSW 9.2 mph - N/A   Clear
3:15 PM 57.4 °F - 43.0 °F 59% 30.28 in 10.0 mi SW 6.9 mph - N/A   Clear
3:35 PM 57.7 °F - 43.2 °F 58% 30.27 in 10.0 mi South 6.9 mph - N/A   Clear
3:55 PM 57.9 °F - 43.5 °F 59% 30.27 in 10.0 mi SSW 6.9 mph - N/A   Clear
4:15 PM 58.3 °F - 43.9 °F 59% 30.27 in 10.0 mi South 4.6 mph - N/A   Clear
4:35 PM 58.6 °F - 44.6 °F 60% 30.27 in 10.0 mi SW 5.8 mph - N/A   Clear
4:55 PM 58.5 °F - 45.0 °F 61% 30.27 in 10.0 mi WSW 3.5 mph - N/A   Clear
5:15 PM 57.6 °F - 45.1 °F 63% 30.27 in 10.0 mi Calm Calm - N/A   Clear
5:35 PM 56.7 °F - 45.3 °F 66% 30.27 in 10.0 mi Calm Calm - N/A   Clear
5:55 PM 55.8 °F - 43.9 °F 64% 30.28 in 10.0 mi Calm Calm - N/A   Clear
6:15 PM 50.0 °F - 44.6 °F 82% 30.28 in 10.0 mi Calm Calm - N/A   Clear
6:35 PM 47.7 °F - 43.5 °F 86% 30.29 in 10.0 mi Calm Calm - N/A   Clear
6:55 PM 46.4 °F - 42.4 °F 86% 30.28 in 10.0 mi Calm Calm - N/A   Clear
7:15 PM 47.7 °F - 43.5 °F 86% 30.29 in 10.0 mi SW 3.5 mph - N/A   Clear
7:35 PM 43.2 °F 41.5 °F 41.2 °F 93% 30.28 in 10.0 mi SSE 3.5 mph - N/A   Clear
7:55 PM 47.8 °F - 44.6 °F 89% 30.28 in 10.0 mi Calm Calm - N/A   Mostly Cloudy
8:15 PM 45.3 °F 44.0 °F 42.8 °F 91% 30.29 in 10.0 mi West 3.5 mph - N/A   Mostly Cloudy
8:35 PM 50.0 °F - 45.0 °F 83% 30.27 in 10.0 mi South 4.6 mph - N/A   Overcast
8:55 PM 48.0 °F - 44.2 °F 87% 30.29 in 10.0 mi NW 3.5 mph - N/A   Scattered Clouds
9:15 PM 45.7 °F 44.4 °F 43.2 °F 91% 30.28 in 7.0 mi SSW 3.5 mph - N/A   Scattered Clouds
9:35 PM 45.3 °F 44.0 °F 44.1 °F 95% 30.29 in 7.0 mi WSW 3.5 mph - N/A   Scattered Clouds
9:55 PM 43.9 °F 42.3 °F 41.9 °F 93% 30.28 in 7.0 mi West 3.5 mph - N/A   Scattered Clouds
10:15 PM 43.9 °F 42.3 °F 42.3 °F 94% 30.28 in 7.0 mi SW 3.5 mph - N/A   Scattered Clouds
10:35 PM 40.3 °F - 39.4 °F 97% 30.28 in 4.0 mi Calm Calm - N/A   Scattered Clouds
10:55 PM 41.7 °F - 41.5 °F 99% 30.28 in 4.0 mi Calm Calm - N/A   Clear
11:15 PM 38.8 °F - 38.5 °F 99% 30.27 in 3.0 mi Calm Calm - N/A   Clear
11:35 PM 38.1 °F - 37.8 °F 99% 30.27 in 2.5 mi Calm Calm - N/A   Clear
11:55 PM 37.8 °F 35.3 °F 37.6 °F 99% 30.27 in 3.0 mi West 3.5 mph - N/A   Clear